Weather History for KAMW - December, 2011

Change the Weather History Date:

Saturday, December 24, 2011

  Actual Average Record
Temperature  
Mean Temperature 32 °F 21 °F  
Max Temperature 47 °F 29 °F 47 °F (2011)
Min Temperature 16 °F 12 °F -20 °F (2013)
Degree Days  
Heating Degree Days 33 44  
Month to date heating degree days 868 987  
Since 1 July heating degree days 2189 2441  
Cooling Degree Days 0 0  
Month to date cooling degree days 0 0  
Year to date cooling degree days 973 752  
Moisture  
Dew Point 23 °F    
Average Humidity 69    
Maximum Humidity 92    
Minimum Humidity 45    
Precipitation  
Precipitation 0.00 in 0.01 in 0.36 in (1982)
Month to date precipitation 1.79 0.91  
Year to date precipitation 31.04  
Sea Level Pressure  
Sea Level Pressure 30.25 in    
Wind  
Wind Speed 8 mph (WSW)    
Max Wind Speed 18 mph    
Max Gust Speed 21 mph    
Visibility 10 miles    
Events      
T = Trace of Precipitation, MM = Missing Value Source: NWS Daily Summary

Daily Weather History Graph

Daily Weather History Graph

Search for Another Location

Airport or City:

Trip Planner

Search our weather history database for the weather conditions in past years. The results will help you decide how hot, cold, wet, or windy it might be!

Date:

Astronomy

Dec. 24, 2011 Rise Set
Actual Time 7:40 AM CST 4:47 PM CST
Civil Twilight 7:08 AM CST 5:19 PM CST
Nautical Twilight 6:33 AM CST 5:54 PM CST
Astronomical Twilight 5:59 AM CST 6:28 PM CST
Moon 7:29 AM CST (12/24) 5:01 PM CST (12/24)
Length of Visible Light 10h 10m
Length of Day
9h 07m
New Moon, 0% of the Moon is Illuminated
Dec 24
New Moon
Dec 24
New
Jan 1
First Quarter
Jan 9
Full
Jan 16
Last Quarter

Hourly Weather History & Observations

Time (CST) Temp. Windchill Dew Point Humidity Pressure Visibility Wind Dir Wind Speed Gust Speed Precip Events Conditions
12:53 AM 19.9 °F - 17.1 °F 89% 30.26 in 10.0 mi Calm Calm - N/A   Clear
1:53 AM 21.0 °F - 18.0 °F 88% 30.26 in 10.0 mi Calm Calm - N/A   Clear
2:53 AM 19.9 °F - 17.1 °F 89% 30.27 in 10.0 mi Calm Calm - N/A   Clear
3:53 AM 19.9 °F 14.9 °F 17.1 °F 89% 30.26 in 10.0 mi WSW 3.5 mph - N/A   Clear
4:53 AM 19.0 °F 12.3 °F 16.0 °F 88% 30.27 in 10.0 mi West 4.6 mph - N/A   Clear
5:53 AM 18.0 °F 12.7 °F 15.1 °F 88% 30.28 in 10.0 mi South 3.5 mph - N/A   Clear
6:53 AM 17.1 °F - 15.1 °F 92% 30.28 in 10.0 mi Calm Calm - N/A   Clear
7:53 AM 18.0 °F 12.7 °F 15.1 °F 88% 30.28 in 10.0 mi SSW 3.5 mph - N/A   Clear
8:53 AM 24.1 °F 18.2 °F 19.9 °F 84% 30.29 in 10.0 mi SW 4.6 mph - N/A   Clear
9:53 AM 30.9 °F 22.8 °F 24.1 °F 76% 30.27 in 10.0 mi SW 9.2 mph - N/A   Clear
10:53 AM 37.9 °F 31.5 °F 26.1 °F 62% 30.27 in 10.0 mi WSW 9.2 mph - N/A   Clear
11:53 AM 41.0 °F 33.9 °F 26.1 °F 55% 30.25 in 10.0 mi West 12.7 mph - N/A   Clear
12:53 PM 44.1 °F 37.7 °F 27.0 °F 51% 30.22 in 10.0 mi WSW 12.7 mph - N/A   Clear
1:53 PM 46.0 °F 39.3 °F 26.1 °F 46% 30.21 in 10.0 mi West 16.1 mph - N/A   Clear
2:53 PM 46.0 °F 40.6 °F 27.0 °F 47% 30.21 in 10.0 mi West 11.5 mph - N/A   Clear
3:53 PM 44.1 °F 39.0 °F 28.0 °F 53% 30.22 in 10.0 mi WSW 9.2 mph - N/A   Clear
4:53 PM 37.0 °F 28.9 °F 27.0 °F 67% 30.23 in 10.0 mi West 12.7 mph - N/A   Clear
5:53 PM 35.1 °F 27.4 °F 26.1 °F 70% 30.24 in 10.0 mi WSW 10.4 mph - N/A   Clear
6:53 PM 34.0 °F 26.6 °F 26.1 °F 73% 30.24 in 10.0 mi WSW 9.2 mph - N/A   Clear
7:53 PM 33.1 °F 24.4 °F 26.1 °F 75% 30.25 in 10.0 mi WSW 11.5 mph - N/A   Clear
8:53 PM 30.9 °F 21.2 °F 25.0 °F 79% 30.23 in 10.0 mi WSW 12.7 mph - N/A   Clear
9:53 PM 34.0 °F 24.6 °F 27.0 °F 75% 30.22 in 10.0 mi WSW 13.8 mph - N/A   Clear
10:53 PM 36.0 °F 27.1 °F 27.0 °F 70% 30.21 in 10.0 mi WSW 13.8 mph - N/A   Clear
11:53 PM 36.0 °F 27.5 °F 27.0 °F 70% 30.20 in 10.0 mi West 12.7 mph - N/A   Clear